1529136000.08,17665,17.25,74006.8,13.43,2.43,1.55,0,*4F
1529136001.29,17666,17.25,74010.0,13.41,3.07,2.27,0,*49
1529136002.52,17667,17.25,74010.8,13.37,3.41,2.59,0,*42
1529136003.72,17668,17.25,74008.5,13.37,3.55,2.69,0,*4B
1529136004.92,17669,17.25,74012.0,13.37,3.63,2.69,0,*4F
1529136006.17,17670,17.25,74010.3,13.35,2.81,1.71,0,*42
1529136007.42,17671,17.25,74006.8,13.35,2.69,1.63,0,*46
1529136008.63,17672,17.25,74014.3,13.31,3.63,2.65,0,*4F
1529136009.88,17673,17.31,74012.8,13.31,3.03,1.97,0,*46
1529136011.12,17674,17.31,74014.5,13.29,3.71,2.73,0,*44
1529136012.36,17675,17.25,74014.0,13.31,3.81,2.89,0,*46
1529136013.61,17676,17.25,74008.3,13.31,3.49,2.69,0,*4F
1529136014.82,17677,17.25,74010.3,13.29,3.81,3.07,0,*4A
1529136016.05,17678,17.25,74014.8,13.29,3.45,2.85,0,*46
1529136017.26,17679,17.25,74008.5,13.31,3.25,2.91,0,*4D
1529136018.5,17680,17.25,74012.5,13.29,2.47,2.17,0,*49
1529136019.73,17681,17.25,74012.0,13.29,2.25,2.01,0,*4B
1529136020.98,17682,17.25,74010.0,13.27,2.73,2.59,0,*48
1529136022.23,17683,17.25,74008.0,13.27,2.59,2.47,0,*4E
1529136023.47,17684,17.25,74012.5,13.27,2.61,2.51,0,*45
1529136024.72,17685,17.25,74014.3,13.27,2.81,2.73,0,*4A
1529136025.95,17686,17.25,74012.8,13.31,2.21,1.83,0,*48
1529136027.21,17687,17.25,74012.8,13.31,2.05,1.93,0,*4E
1529136028.47,17688,17.25,74012.0,13.31,1.97,1.97,0,*4D
1529136029.71,17689,17.25,74008.0,13.31,0.75,0.71,0,*48
1529136030.95,17690,17.25,74012.8,13.31,-0.23,-0.15,0,*41
1529136032.2,17691,17.25,74008.3,13.31,0.47,0.91,0,*4E
1529136033.41,17692,17.31,74014.8,13.29,1.79,2.25,0,*45
1529136034.68,17693,17.25,74014.5,13.31,1.85,2.39,0,*43
1529136035.91,17694,17.25,74012.8,13.31,1.93,2.31,0,*4B
1529136037.14,17695,17.31,74016.3,13.31,1.83,2.21,0,*4A
1529136038.37,17696,17.31,74016.5,13.31,1.79,2.17,0,*49
1529136039.63,17697,17.31,74012.5,13.35,2.25,2.69,0,*4F
1529136040.86,17698,17.25,74014.3,13.37,1.85,2.21,0,*47
1529136042.08,17699,17.25,74014.8,13.37,1.47,1.71,0,*4E
1529136043.32,17700,17.31,74016.0,13.41,1.29,1.29,0,*4B
1529136044.55,17701,17.31,74014.3,13.45,1.37,1.25,0,*4D
1529136045.77,17702,17.25,74012.5,13.45,0.25,0.13,0,*48
1529136047.01,17703,17.25,74014.8,13.47,0.75,0.63,0,*49
1529136048.23,17704,17.31,74014.0,13.49,0.83,0.59,0,*40
1529136049.44,17705,17.31,74012.3,13.53,0.59,0.33,0,*41
1529136050.65,17706,17.31,74014.0,13.53,1.37,0.97,0,*75
1529136051.91,17707,17.31,74012.8,13.57,1.59,0.87,0,*79
1529136053.17,17708,17.25,74010.0,13.57,1.85,0.91,0,*70
1529136054.41,17709,17.31,74012.5,13.63,2.17,1.09,0,*4E
1529136055.64,17710,17.25,74006.5,13.63,1.33,-0.15,0,*52
1529136056.87,17711,17.25,74008.8,13.63,0.25,-1.39,0,*5A
1529136058.06,17712,17.25,74008.8,13.59,1.05,-0.57,0,*5A
1529136059.25,17713,17.31,74010.5,13.63,0.97,-0.77,0,*6A
1529136060.45,17714,17.25,74010.3,13.59,0.33,-1.67,0,*5A
1529136061.67,17715,17.25,74008.5,13.59,-0.53,-2.67,0,*73
1529136062.91,17716,17.31,74010.3,13.57,0.29,-1.71,0,*5A
1529136064.13,17717,17.31,74014.0,13.55,-0.11,-2.31,0,*78
1529136065.35,17718,17.31,74014.5,13.55,0.01,-1.99,0,*6A
1529136066.59,17719,17.31,74012.3,13.55,0.91,-1.21,0,*51
1529136067.86,17720,17.31,74014.5,13.55,0.55,-1.47,0,*53
1529136069.1,17721,17.25,74010.3,13.55,1.29,-0.45,0,*5B
1529136070.33,17722,17.31,74012.3,13.53,0.51,-1.35,0,*56
1529136071.56,17723,17.31,74010.8,13.53,0.79,-0.85,0,*67
1529136072.75,17724,17.25,74012.8,13.53,0.43,-1.09,0,*5C
1529136073.97,17725,17.25,74014.3,13.53,0.33,-0.97,0,*6C
1529136075.18,17726,17.25,74012.0,13.51,-0.45,-1.51,0,*7A
1529136076.41,17727,17.31,74012.8,13.51,-0.93,-1.63,0,*71
1529136077.63,17728,17.31,74012.0,13.49,-1.05,-1.75,0,*4E
1529136078.85,17729,17.31,74010.3,13.47,-1.79,-2.31,0,*49
1529136080.09,17730,17.31,74010.8,13.47,-2.67,-3.11,0,*4E
1529136081.31,17731,17.31,74008.8,13.45,-1.83,-2.23,0,*44
1529136082.51,17732,17.31,74012.3,13.45,-1.21,-1.75,0,*4F
1529136083.75,17733,17.25,74010.8,13.45,-0.97,-1.47,0,*73
1529136084.98,17734,17.31,74010.5,13.47,-0.57,-0.85,0,*45
1529136086.16,17735,17.31,74010.0,13.49,-0.15,-0.19,0,*49
1529136087.4,17736,17.31,74010.5,13.55,0.75,0.87,0,*46
1529136088.63,17737,17.31,74010.8,13.63,0.29,0.59,0,*48
1529136089.83,17738,17.31,74010.0,13.67,-0.61,-0.27,0,*46
1529136091.1,17739,17.31,74012.0,13.69,-1.43,-1.09,0,*45
1529136092.29,17740,17.31,74014.0,13.71,-1.67,-1.17,0,*4B
1529136093.54,17741,17.31,74012.0,13.73,-1.47,-0.61,0,*7A
1529136094.73,17742,17.25,74008.5,13.75,0.05,0.79,0,*71
1529136095.95,17743,17.31,74012.3,13.79,0.67,1.55,0,*77
1529136097.21,17744,17.31,74010.5,13.85,0.79,1.55,0,*7C
1529136098.44,17745,17.31,74010.5,13.87,1.25,2.17,0,*42
1529136099.71,17746,17.31,74010.3,13.91,1.37,2.09,0,*4A
1529136100.95,17747,17.31,74010.8,13.93,1.21,2.25,0,*40
1529136102.13,17748,17.31,74006.3,13.97,1.83,2.31,0,*46
1529136103.34,17749,17.25,74004.3,13.97,1.75,2.17,0,*4A
1529136104.57,17750,17.31,74002.0,13.99,1.13,1.41,0,*4C
1529136105.83,17751,17.31,74000.0,13.99,2.25,2.43,0,*4A
1529136107.05,17752,17.31,74002.8,14.01,0.67,0.91,0,*46
1529136108.29,17753,17.31,74000.8,13.99,0.63,0.79,0,*43
1529136109.54,17754,17.31,74004.3,13.99,0.75,0.91,0,*45
1529136110.79,17755,17.25,73996.5,13.99,1.47,1.59,0,*41
1529136112.0,17756,17.31,74002.8,13.95,1.83,1.83,0,*41
1529136113.25,17757,17.31,74004.0,13.95,2.59,2.55,0,*4C
1529136114.48,17758,17.31,74002.0,13.97,1.85,1.47,0,*43
1529136115.69,17759,17.31,74004.0,13.93,1.83,1.21,0,*40
1529136116.95,17760,17.25,74000.8,13.91,1.47,0.51,0,*76
1529136118.16,17761,17.31,74006.0,13.89,0.87,-0.29,0,*61
1529136119.36,17762,17.31,74006.8,13.87,0.87,-0.57,0,*65
1529136120.58,17763,17.31,74002.5,13.81,0.43,-0.93,0,*62
1529136121.8,17764,17.31,74002.8,13.81,0.63,-0.53,0,*6B
1529136123.04,17765,17.31,74004.5,13.81,-0.81,-1.95,0,*70
1529136124.26,17766,17.31,74004.3,13.77,0.13,-0.81,0,*68
1529136125.47,17767,17.31,74004.3,13.75,-0.15,-1.13,0,*7A
1529136126.7,17768,17.31,74004.3,13.73,0.47,-0.61,0,*6D
1529136127.92,17769,17.31,74004.8,13.73,-0.15,-1.59,0,*7C
1529136129.1,17770,17.31,74006.5,13.71,-0.65,-2.27,0,*7B
1529136130.33,17771,17.31,74004.8,13.67,-0.97,-2.95,0,*79
1529136131.6,17772,17.31,74010.5,13.65,-1.87,-4.81,0,*4B
1529136132.83,17773,17.31,74008.3,13.59,-1.21,-4.85,0,*4D
1529136134.1,17774,17.31,74008.3,13.55,-1.43,-5.69,0,*41
1529136135.34,17775,17.31,74006.0,13.55,-1.25,-5.77,0,*4F
1529136136.53,17776,17.31,74004.3,13.53,-2.39,-6.85,0,*4A
1529136137.76,17777,17.31,74008.3,13.51,-3.07,-7.05,0,*4C
1529136139.0,17778,17.31,74008.0,13.47,-4.61,-7.95,0,*4A
1529136140.26,17779,17.31,74006.8,13.43,-4.93,-7.43,0,*49
1529136141.45,17780,17.31,74006.3,13.41,-4.29,-6.13,0,*48
1529136142.65,17781,17.31,74004.8,13.37,-3.95,-5.39,0,*43
1529136143.89,17782,17.31,74006.8,13.33,-3.63,-4.81,0,*4F
1529136145.13,17783,17.31,74002.3,13.35,-2.95,-3.67,0,*4F
1529136146.32,17784,17.31,74004.0,13.29,-2.31,-2.79,0,*45
1529136147.54,17785,17.31,74004.0,13.29,-2.63,-2.91,0,*45
1529136148.79,17786,17.31,74006.5,13.29,-1.13,-1.35,0,*4F
1529136150.0,17787,17.31,74002.5,13.27,-0.29,-0.41,0,*4A
1529136151.19,17788,17.31,74002.3,13.25,0.09,0.13,0,*72
1529136152.4,17789,17.31,74006.3,13.21,-0.07,-0.15,0,*7F
1529136153.61,17790,17.31,74002.5,13.21,-0.15,-0.19,0,*48
1529136154.82,17791,17.31,74002.0,13.19,1.29,1.05,0,*40
1529136156.04,17792,17.31,74002.0,13.19,0.95,0.47,0,*42
1529136157.31,17793,17.31,74002.5,13.13,-1.95,-2.59,0,*45
1529136158.56,17794,17.31,74000.8,13.11,-1.43,-1.99,0,*44
1529136159.8,17795,17.31,74004.8,13.09,-0.19,-1.01,0,*73
1529136161.04,17796,17.31,74008.8,13.09,-0.93,-2.35,0,*76
1529136162.29,17797,17.31,74006.0,13.07,-1.05,-2.71,0,*47
1529136163.51,17798,17.31,74006.5,13.05,-2.15,-4.33,0,*48
1529136164.74,17799,17.31,74006.8,13.03,-2.31,-4.89,0,*48
1529136165.96,17800,17.31,74006.8,13.03,-1.09,-4.09,0,*47
1529136167.22,17801,17.31,74004.0,13.01,-0.89,-3.55,0,*73
1529136168.43,17802,17.31,74004.0,13.01,-0.53,-3.11,0,*77
1529136169.61,17803,17.31,74002.8,13.03,-0.61,-3.31,0,*77
1529136170.84,17804,17.31,73998.5,13.03,-1.79,-5.11,0,*4C
1529136172.08,17805,17.31,74002.5,13.05,-2.19,-5.65,0,*4D
1529136173.3,17806,17.31,74000.0,13.05,-2.79,-6.05,0,*4D
1529136174.54,17807,17.31,73998.0,13.05,-4.21,-7.23,0,*42
1529136175.78,17808,17.31,73998.5,13.09,-4.77,-6.81,0,*4B
1529136177.03,17809,17.31,73998.0,13.07,-7.05,-9.11,0,*44
1529136178.25,17810,17.31,73998.5,13.05,-6.85,-9.05,0,*42
1529136179.47,17811,17.31,74000.8,13.05,-6.55,-8.93,0,*40
1529136180.71,17812,17.31,74000.5,13.03,-8.63,-11.63,0,*79
1529136181.94,17813,17.31,73998.8,13.01,-10.01,-13.07,0,*47
1529136183.17,17814,17.31,73996.3,12.99,-8.55,-11.37,0,*79
1529136184.39,17815,17.31,73996.3,13.01,-6.09,-8.75,0,*41
1529136185.63,17816,17.31,73998.5,13.01,-5.43,-7.69,0,*4D
1529136186.85,17817,17.31,74000.3,13.09,-6.47,-8.41,0,*46
1529136188.05,17818,17.31,73996.5,13.11,-8.97,-10.53,0,*79
1529136189.3,17819,17.31,73998.0,13.13,-11.19,-13.01,0,*40
1529136190.53,17820,17.31,74000.5,13.11,-11.93,-13.73,0,*4F
1529136191.77,17821,17.31,73998.5,13.07,-14.23,-15.85,0,*48
1529136192.98,17822,17.31,73996.5,13.03,-15.15,-16.79,0,*4B
1529136194.21,17823,17.31,73998.0,12.97,-13.43,-14.23,0,*4E
1529136195.47,17824,17.31,74002.5,12.97,-12.03,-12.53,0,*4D
1529136196.74,17825,17.31,74000.0,12.97,-10.63,-11.15,0,*49
1529136197.97,17826,17.31,73994.3,12.99,-11.23,-11.77,0,*45
1529136199.22,17827,17.31,73992.3,13.01,-10.85,-11.37,0,*4D
1529136200.46,17828,17.31,73994.3,13.05,-10.57,-10.89,0,*4D
1529136201.69,17829,17.31,73996.8,13.07,-10.31,-10.63,0,*4A
1529136202.92,17830,17.31,73994.3,13.11,-10.85,-10.75,0,*4D
1529136204.19,17831,17.31,73992.5,13.17,-9.61,-9.41,0,*47
1529136205.42,17832,17.31,73992.8,13.23,-9.57,-9.57,0,*41
1529136206.68,17833,17.31,73994.3,13.21,-10.71,-10.45,0,*45
1529136207.91,17834,17.31,73990.3,13.23,-10.63,-10.01,0,*43
1529136209.15,17835,17.31,73986.8,13.25,-8.93,-8.07,0,*4D
1529136210.38,17836,17.31,73992.3,13.27,-9.83,-8.71,0,*4D
1529136211.57,17837,17.31,73992.3,13.29,-10.97,-8.67,0,*78
1529136212.81,17838,17.31,73998.0,13.31,-9.57,-6.89,0,*44
1529136214.02,17839,17.31,73998.5,13.37,-9.61,-6.35,0,*41
1529136215.23,17840,17.31,73996.0,13.41,-9.57,-5.47,0,*4D
1529136216.49,17841,17.31,73994.3,13.47,-9.15,-4.65,0,*4D
1529136217.71,17842,17.31,73998.3,13.49,-8.51,-4.33,0,*42
1529136218.9,17843,17.31,74006.0,13.53,-7.83,-3.91,0,*47
1529136220.12,17844,17.31,74004.8,13.57,-9.93,-6.35,0,*40
1529136221.31,17845,17.31,74006.5,13.59,-7.87,-4.99,0,*40
1529136222.54,17846,17.31,74002.0,13.67,-8.29,-5.85,0,*49
1529136223.74,17847,17.31,74006.3,13.71,-8.93,-6.81,0,*49
1529136224.97,17848,17.31,74008.3,13.71,-9.37,-7.23,0,*40
1529136226.19,17849,17.31,74010.0,13.75,-9.79,-7.39,0,*44
1529136227.42,17850,17.31,74008.0,13.75,-10.89,-8.51,0,*7A
1529136228.71,17851,17.31,74012.3,13.77,-13.01,-10.63,0,*42
1529136229.94,17852,17.31,74018.8,13.79,-12.57,-10.19,0,*40
1529136231.17,17853,17.31,74016.5,13.79,-10.71,-8.21,0,*75
1529136232.42,17854,17.31,74014.3,13.85,-11.23,-8.81,0,*7D
1529136233.61,17855,17.31,74012.0,13.87,-10.15,-7.53,0,*7A
1529136234.84,17856,17.31,74014.3,13.89,-11.29,-8.67,0,*71
1529136236.11,17857,17.31,74012.5,13.91,-10.71,-7.91,0,*73
1529136237.34,17858,17.31,74008.8,13.93,-8.55,-5.77,0,*4B
1529136238.56,17859,17.31,74006.0,13.97,-7.53,-4.69,0,*49
1529136239.77,17860,17.31,74004.0,14.01,-6.19,-3.31,0,*4E
1529136240.97,17861,17.31,74004.5,14.05,-7.15,-4.13,0,*41
1529136242.19,17862,17.31,74002.0,14.09,-8.17,-5.03,0,*43
1529136243.42,17863,17.31,74010.0,14.05,-8.93,-5.93,0,*4B
1529136244.65,17864,17.31,74010.0,14.05,-8.89,-5.61,0,*4A
1529136245.88,17865,17.31,74010.0,14.03,-6.27,-3.15,0,*42
1529136247.1,17866,17.31,74002.0,14.01,-5.39,-2.47,0,*49
1529136248.32,17867,17.31,74002.0,13.99,-4.09,-1.29,0,*47
1529136249.57,17868,17.31,73996.5,13.99,-5.51,-2.47,0,*4F
1529136250.81,17869,17.31,73994.0,13.99,-4.85,-1.67,0,*47
1529136252.03,17870,17.31,73990.8,13.99,-6.13,-2.91,0,*48
1529136253.23,17871,17.31,73992.5,13.97,-6.35,-2.99,0,*4B
1529136254.51,17872,17.31,73994.8,13.95,-5.93,-2.51,0,*41
1529136255.75,17873,17.31,74008.5,13.95,-5.27,-1.75,0,*4A
1529136256.99,17874,17.31,74002.5,13.95,-4.29,-1.13,0,*42
1529136258.21,17875,17.31,73998.3,13.97,-5.43,-2.51,0,*49
1529136259.43,17876,17.31,73992.0,13.95,-9.67,-6.59,0,*4E
1529136260.68,17877,17.31,73994.3,13.91,-10.45,-7.39,0,*74
1529136261.93,17878,17.31,73986.0,13.87,-12.75,-9.53,0,*7F
1529136263.18,17879,17.31,73990.0,13.85,-10.05,-7.61,0,*76
1529136264.4,17880,17.31,73982.5,13.81,-9.79,-7.49,0,*4D
1529136265.62,17881,17.31,73982.0,13.81,-10.85,-8.21,0,*76
1529136266.87,17882,17.31,73986.5,13.77,-13.43,-11.33,0,*4E
1529136268.14,17883,17.31,73988.3,13.73,-14.05,-13.11,0,*4C
1529136269.37,17884,17.31,73990.3,13.67,-15.29,-12.61,0,*47
1529136270.62,17885,17.31,73994.5,13.65,-15.11,-12.65,0,*4B
1529136271.84,17886,17.31,73996.0,13.55,-15.71,-13.93,0,*45
1529136273.09,17887,17.31,73996.5,13.51,-16.17,-15.67,0,*4E
1529136274.32,17888,17.31,73998.3,13.47,-16.45,-15.75,0,*42
1529136275.55,17889,17.31,73996.3,13.45,-16.89,-15.89,0,*42
1529136276.75,17890,17.31,73996.5,13.45,-19.99,-19.51,0,*4D
1529136277.96,17891,17.31,73994.5,13.41,-17.49,-16.83,0,*4B
1529136279.21,17892,17.31,73994.8,13.43,-22.07,-22.17,0,*4C
1529136280.42,17893,17.31,73994.5,13.33,-22.53,-22.67,0,*4C
1529136281.65,17894,17.31,73988.3,13.33,-22.77,-22.83,0,*47
1529136282.87,17895,17.31,73990.0,13.25,-24.05,-24.15,0,*4B
1529136284.13,17896,17.31,73992.0,13.17,-23.99,-23.75,0,*4A
1529136285.39,17897,17.31,73986.3,13.13,-20.93,-20.49,0,*4A
1529136286.65,17898,17.31,73984.8,13.13,-18.73,-17.59,0,*45
1529136287.88,17899,17.31,73978.5,13.11,-17.25,-15.67,0,*45
1529136289.1,17900,17.31,73982.3,13.11,-14.65,-12.79,0,*4B
1529136290.35,17901,17.31,73978.5,13.13,-12.21,-10.27,0,*47
1529136291.58,17902,17.31,73992.0,13.19,-13.97,-12.47,0,*46
1529136292.8,17903,17.31,73992.3,13.19,-14.97,-13.43,0,*45
1529136293.99,17904,17.31,73998.0,13.19,-12.39,-11.15,0,*41
1529136295.19,17905,17.31,73998.5,13.19,-10.01,-8.89,0,*74
1529136296.46,17906,17.31,73994.5,13.21,-12.35,-11.81,0,*49
1529136297.71,17907,17.31,74000.0,13.21,-7.87,-7.43,0,*4C
1529136298.99,17908,17.31,74006.8,13.21,-7.95,-7.61,0,*40
1529136300.2,17909,17.31,74010.3,13.21,-6.13,-6.13,0,*4A
1529136301.43,17910,17.31,74016.3,13.27,-3.95,-3.79,0,*46
1529136302.65,17911,17.31,74016.8,13.29,-5.51,-5.31,0,*4D
1529136303.9,17912,17.31,74014.8,13.29,-5.89,-5.77,0,*49
1529136305.09,17913,17.31,74018.3,13.29,-6.39,-6.39,0,*49
1529136306.32,17914,17.31,74016.5,13.29,-4.93,-4.93,0,*4E
1529136307.52,17915,17.31,74014.8,13.29,-4.61,-4.99,0,*48
1529136308.74,17916,17.31,74012.8,13.25,-4.41,-5.07,0,*43
1529136309.94,17917,17.31,74014.5,13.25,-3.15,-3.75,0,*47
1529136311.12,17918,17.31,74008.5,13.25,-2.39,-3.23,0,*44
1529136312.31,17919,17.31,74006.5,13.25,-3.35,-4.17,0,*48
1529136313.57,17920,17.31,74004.8,13.21,-4.33,-5.19,0,*48
1529136314.81,17921,17.31,74006.3,13.11,-5.19,-5.81,0,*42
1529136316.04,17922,17.31,74002.8,13.07,-4.57,-5.03,0,*47
1529136317.27,17923,17.31,74004.5,12.99,-2.35,-2.67,0,*47
1529136318.51,17924,17.31,74004.0,12.97,-1.95,-2.15,0,*42
1529136319.73,17925,17.31,74002.5,12.91,-1.25,-1.55,0,*49
1529136320.94,17926,17.31,74004.0,12.85,-1.01,-1.29,0,*42
1529136322.12,17927,17.31,74002.3,12.85,-0.03,-0.33,0,*7A
1529136323.32,17928,17.31,74002.8,12.81,0.13,-0.33,0,*6D
1529136324.49,17929,17.31,74002.3,12.77,0.43,-0.03,0,*53
1529136325.74,17930,17.31,74002.0,12.75,0.79,0.29,0,*45
1529136326.96,17931,17.31,74002.8,12.73,0.75,0.29,0,*4E
1529136328.21,17932,17.31,74002.8,12.67,0.51,0.21,0,*46
1529136329.4,17933,17.31,74006.0,12.65,0.05,-0.41,0,*5F
1529136330.6,17934,17.31,74006.8,12.59,-0.37,-0.85,0,*43
1529136331.8,17935,17.31,74004.3,12.55,-0.49,-0.89,0,*4B
1529136332.99,17936,17.31,74010.3,12.51,-0.19,-0.81,0,*41
1529136334.23,17937,17.31,74006.0,12.45,0.67,0.13,0,*47
1529136335.45,17938,17.31,74006.3,12.41,0.51,0.05,0,*7E
1529136336.66,17939,17.31,74002.8,12.37,-0.11,-0.57,0,*4D
1529136337.88,17940,17.31,74004.3,12.33,-0.15,-0.69,0,*4E
1529136339.13,17941,17.31,74004.8,12.29,0.91,0.47,0,*44
1529136340.36,17942,17.31,74006.3,12.27,1.51,1.25,0,*41
1529136341.59,17943,17.31,74002.0,12.23,1.59,1.21,0,*48
1529136342.81,17944,17.31,74002.3,12.19,2.17,1.79,0,*42
1529136344.01,17945,17.31,73998.5,12.19,1.75,1.43,0,*4D
1529136345.24,17946,17.31,74000.3,12.15,2.05,1.71,0,*47
1529136346.44,17947,17.31,73998.3,12.15,2.31,1.93,0,*4D
1529136347.68,17948,17.31,73998.5,12.15,2.43,2.05,0,*4B
1529136348.91,17949,17.31,73998.0,12.13,1.01,0.59,0,*72
1529136350.13,17950,17.31,74000.3,12.09,0.51,-0.07,0,*53
1529136351.3,17951,17.31,74000.0,12.07,0.01,-0.41,0,*5B
1529136352.52,17952,17.31,74000.8,12.01,-0.37,-0.81,0,*4A
1529136353.75,17953,17.31,73996.3,11.97,1.41,1.13,0,*4D
1529136354.97,17954,17.31,73996.0,11.93,2.05,1.71,0,*49
1529136356.2,17955,17.31,73996.8,11.95,2.27,1.97,0,*46
1529136357.43,17956,17.31,73998.0,11.93,2.51,2.17,0,*49
1529136358.63,17957,17.31,73998.3,11.93,2.55,2.27,0,*4F
1529136359.84,17958,17.31,74000.0,11.93,2.99,2.77,0,*45
1529136361.07,17959,17.31,73996.0,11.93,2.69,2.43,0,*4C
1529136362.29,17960,17.31,74002.8,11.93,2.69,2.55,0,*41
1529136363.52,17961,17.31,74010.0,11.91,2.65,2.47,0,*4D
1529136364.72,17962,17.31,74016.0,11.89,2.47,2.31,0,*46
1529136365.94,17963,17.31,74020.3,11.91,2.55,2.35,0,*49
1529136367.15,17964,17.31,74016.5,11.89,1.85,1.75,0,*4E
1529136368.38,17965,17.31,74020.0,11.89,2.13,2.13,0,*40
1529136369.64,17966,17.31,74010.8,11.87,2.59,2.59,0,*4D
1529136370.9,17967,17.31,74006.0,11.87,1.63,1.67,0,*48
1529136372.14,17968,17.31,74006.0,11.85,2.59,2.81,0,*44
1529136373.34,17969,17.31,74000.3,11.85,2.91,3.19,0,*41
1529136374.54,17970,17.31,73998.8,11.85,0.87,1.01,0,*77
1529136375.81,17971,17.31,74002.5,11.79,-1.01,-0.93,0,*70
1529136376.99,17972,17.31,74000.5,11.73,-0.69,0.01,0,*50
1529136378.24,17973,17.31,74006.5,11.71,-1.87,-1.17,0,*49
1529136379.43,17974,17.31,74010.8,11.65,-1.67,-0.49,0,*7F
1529136380.64,17975,17.31,74008.8,11.65,-0.73,0.51,0,*6E
1529136381.86,17976,17.31,74006.3,11.63,0.75,1.71,0,*73
1529136383.09,17977,17.31,74000.5,11.63,1.25,2.47,0,*40
1529136384.32,17978,17.31,74000.5,11.63,1.71,3.19,0,*44
1529136385.53,17979,17.31,74000.8,11.63,-0.07,1.63,0,*67
1529136386.75,17980,17.31,74002.5,11.65,0.59,2.17,0,*71
1529136387.99,17981,17.31,74002.3,11.65,1.47,3.03,0,*4A
1529136389.19,17982,17.31,74004.3,11.65,1.51,2.95,0,*40
1529136390.43,17983,17.31,74006.0,11.65,1.13,2.55,0,*4B
1529136391.65,17984,17.31,74012.0,11.65,0.67,2.09,0,*77
1529136392.88,17985,17.31,74008.0,11.67,-0.41,1.43,0,*50
1529136394.11,17986,17.31,74010.8,11.65,-0.23,2.17,0,*57
1529136395.35,17987,17.31,74008.3,11.67,-1.09,1.79,0,*66
1529136396.56,17988,17.31,74000.5,11.69,-0.29,3.23,0,*59
1529136397.74,17989,17.31,74004.3,11.69,-0.15,3.81,0,*5F
1529136398.97,17990,17.31,74006.3,11.75,0.29,4.15,0,*72
1529136400.16,17991,17.31,74008.3,11.81,0.33,4.27,0,*72
1529136401.37,17992,17.31,74008.3,11.89,-0.53,3.45,0,*51
1529136402.56,17993,17.31,74008.3,11.91,0.05,3.81,0,*4F
1529136403.79,17994,17.31,74008.3,11.95,-0.61,2.55,0,*5B
1529136405.03,17995,17.31,74012.3,11.99,-1.99,1.21,0,*60
1529136406.26,17996,17.31,74004.0,12.05,-2.99,0.41,0,*51
1529136407.47,17997,17.31,74006.0,12.07,-2.39,0.51,0,*59
1529136408.68,17998,17.31,74004.8,12.09,-0.73,1.75,0,*53
1529136409.9,17999,17.31,74004.5,12.13,-0.03,1.93,0,*66
1529136411.14,18000,17.31,74000.8,12.17,0.37,2.21,0,*74
1529136412.35,18001,17.31,74004.5,12.27,-0.49,1.63,0,*57
1529136413.54,18002,17.31,74006.0,12.27,-2.87,-0.37,0,*79
1529136414.75,18003,17.31,74008.5,12.31,-1.67,0.71,0,*5D
1529136415.94,18004,17.31,74008.3,12.31,-1.21,1.05,0,*6A
1529136417.15,18005,17.31,74014.0,12.35,-1.17,0.87,0,*51
1529136418.37,18006,17.31,74010.0,12.33,-2.39,-1.17,0,*4E
1529136419.6,18007,17.31,74012.0,12.35,-3.75,-2.67,0,*44
1529136420.79,18008,17.31,74008.5,12.35,-2.91,-2.19,0,*49
1529136422.03,18009,17.31,74004.3,12.33,-3.83,-3.27,0,*40
1529136423.26,18010,17.38,74010.5,12.33,-4.21,-4.21,0,*46
1529136424.46,18011,17.31,74010.8,12.35,-3.39,-4.05,0,*49
1529136425.68,18012,17.31,74004.5,12.35,-4.65,-5.31,0,*42
1529136426.88,18013,17.31,74006.5,12.39,-6.31,-5.97,0,*40
1529136428.13,18014,17.38,74012.3,12.41,-6.73,-5.89,0,*41
1529136429.34,18015,17.38,74014.8,12.43,-5.11,-4.33,0,*45
1529136430.56,18016,17.31,74014.0,12.49,-4.41,-4.49,0,*45
1529136431.8,18017,17.38,74008.8,12.53,-6.73,-7.27,0,*47
1529136433.01,18018,17.31,74008.8,12.57,-4.99,-5.97,0,*43
1529136434.24,18019,17.31,74008.3,12.61,-3.79,-4.73,0,*45
1529136435.45,18020,17.31,74008.5,12.61,-2.95,-3.79,0,*41
1529136436.69,18021,17.38,74014.0,12.67,-2.75,-3.35,0,*40
1529136437.89,18022,17.31,74010.5,12.69,-2.87,-3.27,0,*43
1529136439.13,18023,17.31,74014.3,12.75,-2.55,-2.27,0,*41
1529136440.34,18024,17.31,74012.3,12.79,-2.91,-1.51,0,*40
1529136441.55,18025,17.31,74014.5,12.83,-2.23,-0.49,0,*75
1529136442.77,18026,17.31,74014.3,12.87,-1.75,-0.15,0,*7B
1529136443.98,18027,17.31,74008.5,12.89,-1.21,0.17,0,*5A
1529136445.2,18028,17.31,74008.8,12.97,-1.33,0.05,0,*6A
1529136446.44,18029,17.31,74012.5,12.97,-1.29,0.17,0,*53
1529136447.7,18030,17.38,74014.8,13.01,-1.13,0.33,0,*5A
1529136448.94,18031,17.31,74008.5,13.01,0.25,1.67,0,*72
1529136450.17,18032,17.38,74018.0,13.05,-0.65,0.67,0,*6D
1529136451.36,18033,17.31,74012.3,13.07,-0.77,0.43,0,*6B
1529136452.57,18034,17.31,74016.5,13.07,-1.17,0.29,0,*57
1529136453.81,18035,17.31,74016.5,13.09,-0.77,0.75,0,*66
1529136455.05,18036,17.38,74016.0,13.09,0.47,1.89,0,*79
1529136456.27,18037,17.38,74014.8,13.09,1.41,2.61,0,*4A
1529136457.5,18038,17.31,74014.5,13.11,1.71,2.69,0,*47
1529136458.72,18039,17.31,74012.5,13.09,1.83,2.61,0,*4A
1529136459.96,18040,17.31,74010.3,13.09,1.93,2.61,0,*45
1529136461.19,18041,17.31,74010.5,13.07,1.47,1.85,0,*4A
1529136462.43,18042,17.31,74012.5,13.05,1.75,1.97,0,*49
1529136463.66,18043,17.38,74012.5,13.03,1.51,1.71,0,*40
1529136464.92,18044,17.31,74008.5,13.01,1.55,1.21,0,*44
1529136466.15,18045,17.38,74014.3,12.99,2.05,1.59,0,*4C
1529136467.38,18046,17.38,74014.5,12.95,2.73,2.09,0,*44
1529136468.62,18047,17.31,74018.5,12.97,2.81,1.79,0,*4E
1529136469.86,18048,17.31,74012.0,12.95,3.11,2.39,0,*4C
1529136471.08,18049,17.38,74016.8,12.91,2.59,1.41,0,*48
1529136472.31,18050,17.38,74016.8,12.89,1.89,1.17,0,*44
1529136473.56,18051,17.38,74016.3,12.91,2.25,1.59,0,*43
1529136474.81,18052,17.31,74016.0,12.91,1.71,0.91,0,*77
1529136476.04,18053,17.31,74016.3,12.91,1.01,0.37,0,*7D
1529136477.26,18054,17.31,74018.8,12.91,1.41,0.67,0,*7B
1529136478.49,18055,17.38,74022.0,12.97,2.01,1.41,0,*4E
1529136479.74,18056,17.31,74018.8,13.01,1.47,0.25,0,*71
1529136480.96,18057,17.31,74020.0,13.01,-0.37,-1.63,0,*75
1529136482.19,18058,17.31,74016.3,13.05,-2.31,-3.27,0,*48
1529136483.46,18059,17.31,74014.5,13.05,-2.47,-3.47,0,*4E
1529136484.71,18060,17.38,74014.5,13.09,-2.63,-3.75,0,*4F
1529136485.92,18061,17.31,74014.5,13.09,-2.39,-3.39,0,*49
1529136487.15,18062,17.31,74014.8,13.13,-3.39,-4.65,0,*4E
1529136488.37,18063,17.38,74012.5,13.21,-4.17,-5.35,0,*41
1529136489.57,18064,17.31,74014.3,13.23,-6.35,-7.15,0,*46
1529136490.81,18065,17.38,74012.8,13.23,-8.11,-7.95,0,*47
1529136492.06,18066,17.38,74016.8,13.25,-5.85,-4.81,0,*44
1529136493.28,18067,17.31,74018.0,13.27,-6.13,-4.25,0,*45
1529136494.53,18068,17.38,74020.3,13.31,-7.31,-5.39,0,*40
1529136495.76,18069,17.38,74016.3,13.35,-6.69,-4.73,0,*46
1529136496.95,18070,17.38,74016.0,13.37,-6.13,-4.13,0,*47
1529136498.2,18071,17.31,74018.3,13.41,-7.61,-5.73,0,*44
1529136499.41,18072,17.38,74018.5,13.45,-7.99,-5.35,0,*46
1529136500.63,18073,17.38,74018.0,13.49,-7.57,-4.17,0,*48
1529136501.82,18074,17.38,74022.5,13.53,-7.87,-3.87,0,*47
1529136503.07,18075,17.38,74022.3,13.57,-7.95,-4.25,0,*4E
1529136504.29,18076,17.31,74018.8,13.63,-7.57,-3.79,0,*4A
1529136505.52,18077,17.38,74022.3,13.65,-9.71,-6.39,0,*46
1529136506.75,18078,17.38,74020.3,13.63,-10.57,-7.43,0,*7F
1529136508.0,18079,17.31,74018.5,13.63,-11.77,-7.57,0,*78
1529136509.25,18080,17.38,74022.3,13.63,-9.37,-4.93,0,*48
1529136510.48,18081,17.38,74018.5,13.67,-9.71,-4.73,0,*41
1529136511.7,18082,17.38,74018.5,13.69,-9.27,-3.91,0,*44